| time (UTC) | temp F | wind direction | speed MPH | gust MPH | rain 1hr in | rain 24hr in | rain mn in | humidity % | barometer mb |
| 20260503053133 | 45 | 333 | 3.0 | 8.0 | 0.00 | 0.00 | 0.00 | 42 | 1021.7 |
| 20260503052636 | 45 | 306 | 4.0 | 9.0 | 0.00 | 0.00 | 0.00 | 41 | 1021.7 |
| 20260503052140 | 45 | 303 | 7.0 | 9.0 | 0.00 | 0.00 | 0.00 | 41 | 1021.6 |
| 20260503051623 | 45 | 303 | 6.0 | 10.0 | 0.00 | 0.00 | 0.00 | 42 | 1021.6 |
| 20260503051127 | 45 | 308 | 7.0 | 12.0 | 0.00 | 0.00 | 0.00 | 40 | 1021.7 |
| 20260503050630 | 45 | 298 | 8.0 | 12.0 | 0.00 | 0.00 | 0.00 | 40 | 1021.7 |
| 20260503050132 | 45 | 310 | 7.0 | 10.0 | 0.00 | 0.00 | 0.00 | 41 | 1021.6 |
| 20260503045637 | 45 | 285 | 7.0 | 11.0 | 0.00 | 0.00 | 0.00 | 39 | 1021.7 |
| 20260503045141 | 45 | 344 | 8.0 | 12.0 | 0.00 | 0.00 | 0.00 | 42 | 1021.7 |
| 20260503044625 | 45 | 317 | 7.0 | 12.0 | 0.00 | 0.00 | 0.00 | 41 | 1021.7 |
| 20260503044130 | 45 | 320 | 8.0 | 11.0 | 0.00 | 0.00 | 0.00 | 40 | 1021.6 |
| 20260503043638 | 45 | 311 | 8.0 | 11.0 | 0.00 | 0.00 | 0.00 | 39 | 1021.6 |
| 20260503043123 | 45 | 305 | 7.0 | 12.0 | 0.00 | 0.00 | 0.00 | 39 | 1021.7 |
| 20260503042627 | 45 | 304 | 9.0 | 12.0 | 0.00 | 0.00 | 0.00 | 38 | 1021.7 |
| 20260503042132 | 45 | 314 | 9.0 | 11.0 | 0.00 | 0.00 | 0.00 | 39 | 1021.7 |
| 20260503041635 | 45 | 314 | 10.0 | 12.0 | 0.00 | 0.00 | 0.00 | 38 | 1021.7 |
| 20260503041140 | 45 | 305 | 10.0 | 12.0 | 0.00 | 0.00 | 0.00 | 38 | 1021.6 |
| 20260503040624 | 45 | 318 | 9.0 | 12.0 | 0.00 | 0.00 | 0.00 | 39 | 1021.7 |
| 20260503040128 | 45 | 309 | 9.0 | 11.0 | 0.00 | 0.00 | 0.00 | 40 | 1021.7 |
| 20260503035633 | 45 | 276 | 9.0 | 11.0 | 0.00 | 0.00 | 0.00 | 39 | 1021.7 |
| 20260503035137 | 45 | 321 | 8.0 | 13.0 | 0.00 | 0.00 | 0.00 | 40 | 1021.7 |
| 20260503034627 | 46 | 323 | 9.0 | 13.0 | 0.00 | 0.00 | 0.00 | 40 | 1021.7 |
| 20260503034131 | 46 | 300 | 8.0 | 15.0 | 0.00 | 0.00 | 0.00 | 40 | 1021.7 |
| 20260503033634 | 45 | 302 | 8.0 | 15.0 | 0.00 | 0.00 | 0.00 | 39 | 1021.8 |
| 20260503033138 | 45 | 329 | 7.0 | 16.0 | 0.00 | 0.00 | 0.00 | 39 | 1021.8 |
| 20260503032622 | 46 | 314 | 11.0 | 16.0 | 0.00 | 0.00 | 0.00 | 38 | 1021.8 |
| 20260503032126 | 46 | 311 | 8.0 | 13.0 | 0.00 | 0.00 | 0.00 | 33 | 1021.8 |
| 20260503031631 | 46 | 333 | 8.0 | 14.0 | 0.00 | 0.00 | 0.00 | 34 | 1021.9 |
| 20260503031136 | 46 | 328 | 12.0 | 14.0 | 0.00 | 0.00 | 0.00 | 35 | 1021.9 |
| 20260503030125 | 45 | 330 | 10.0 | 14.0 | 0.00 | 0.00 | 0.00 | 35 | 1021.8 |
| 20260503025630 | 45 | 331 | 8.0 | 13.0 | 0.00 | 0.00 | 0.00 | 35 | 1021.9 |
| 20260503025139 | 45 | 320 | 7.0 | 15.0 | 0.00 | 0.00 | 0.00 | 36 | 1022.0 |
| 20260503024623 | 45 | 331 | 9.0 | 15.0 | 0.00 | 0.00 | 0.00 | 37 | 1022.0 |
| 20260503024126 | 45 | 301 | 7.0 | 13.0 | 0.00 | 0.00 | 0.00 | 39 | 1022.0 |
| 20260503023630 | 45 | 309 | 10.0 | 13.0 | 0.00 | 0.00 | 0.00 | 39 | 1022.1 |
| 20260503023134 | 45 | 310 | 10.0 | 12.0 | 0.00 | 0.00 | 0.00 | 43 | 1022.1 |
| 20260503022639 | 45 | 315 | 8.0 | 10.0 | 0.00 | 0.00 | 0.00 | 40 | 1022.1 |
| 20260503022123 | 46 | 320 | 8.0 | 11.0 | 0.00 | 0.00 | 0.00 | 41 | 1022.2 |
| 20260503021628 | 45 | 340 | 8.0 | 11.0 | 0.00 | 0.00 | 0.00 | 44 | 1022.2 |
| 20260503021132 | 45 | 327 | 9.0 | 11.0 | 0.00 | 0.00 | 0.00 | 42 | 1022.3 |
| 20260503020635 | 45 | 338 | 8.0 | 11.0 | 0.00 | 0.00 | 0.00 | 44 | 1022.3 |
| 20260503020123 | 45 | 320 | 9.0 | 11.0 | 0.00 | 0.00 | 0.00 | 44 | 1022.3 |
| 20260503015628 | 44 | 339 | 9.0 | 10.0 | 0.00 | 0.00 | 0.00 | 53 | 1022.3 |
| 20260503015132 | 44 | 321 | 9.0 | 10.0 | 0.00 | 0.00 | 0.00 | 54 | 1022.3 |
| 20260503014637 | 44 | 320 | 8.0 | 10.0 | 0.00 | 0.00 | 0.00 | 55 | 1022.4 |
| 20260503014142 | 44 | 318 | 8.0 | 10.0 | 0.00 | 0.00 | 0.00 | 55 | 1022.3 |
| 20260503013625 | 44 | 319 | 7.0 | 9.0 | 0.00 | 0.00 | 0.00 | 55 | 1022.3 |
| 20260503013130 | 44 | 336 | 5.0 | 6.0 | 0.00 | 0.00 | 0.00 | 55 | 1022.4 |
| 20260503012634 | 45 | 350 | 5.0 | 6.0 | 0.00 | 0.00 | 0.00 | 55 | 1022.4 |
| 20260503012138 | 45 | 348 | 3.0 | 5.0 | 0.00 | 0.00 | 0.00 | 54 | 1022.5 |
| 20260503011622 | 45 | 329 | 4.0 | 5.0 | 0.00 | 0.00 | 0.00 | 55 | 1022.5 |
| 20260503011126 | 44 | 341 | 3.0 | 6.0 | 0.00 | 0.00 | 0.00 | 56 | 1022.5 |
| 20260503010635 | 44 | 331 | 4.0 | 10.0 | 0.00 | 0.00 | 0.00 | 62 | 1022.6 |
| 20260503010141 | 44 | 331 | 6.0 | 10.0 | 0.00 | 0.00 | 0.00 | 68 | 1022.6 |
| 20260503005626 | 44 | 342 | 6.0 | 8.0 | 0.00 | 0.00 | 0.00 | 66 | 1022.7 |
| 20260503005130 | 44 | 335 | 5.0 | 6.0 | 0.00 | 0.00 | 0.00 | 65 | 1022.7 |
| 20260503004633 | 44 | 332 | 5.0 | 8.0 | 0.00 | 0.00 | 0.00 | 67 | 1022.8 |
| 20260503004138 | 43 | 343 | 5.0 | 8.0 | 0.00 | 0.00 | 0.00 | 70 | 1022.8 |
| 20260503003623 | 43 | 346 | 4.0 | 6.0 | 0.00 | 0.00 | 0.00 | 70 | 1022.9 |
| 20260503003127 | 43 | 332 | 2.0 | 3.0 | 0.00 | 0.00 | 0.00 | 71 | 1023.0 |
| 20260503002632 | 43 | 277 | 0.0 | 1.0 | 0.00 | 0.00 | 0.00 | 75 | 1023.0 |
| 20260503002137 | 43 | 277 | 0.0 | 2.0 | 0.00 | 0.00 | 0.00 | 75 | 1023.0 |
| 20260503001625 | 43 | 277 | 1.0 | 2.0 | 0.00 | 0.00 | 0.00 | 71 | 1023.1 |
| 20260503001129 | 43 | 277 | 1.0 | 3.0 | 0.00 | 0.00 | 0.00 | 69 | 1023.2 |
| 20260503000633 | 43 | 277 | 1.0 | 4.0 | 0.00 | 0.00 | 0.00 | 71 | 1023.2 |
| 20260503000138 | 43 | 247 | 1.0 | 7.0 | 0.00 | 0.00 | 0.00 | 70 | 1023.3 |
| 20260502235623 | 43 | 256 | 5.0 | 7.0 | 0.00 | 0.00 | 0.00 | 70 | 1023.3 |
| 20260502235128 | 43 | 244 | 4.0 | 5.0 | 0.00 | 0.00 | 0.00 | 70 | 1023.4 |
| 20260502234623 | 44 | 186 | 1.0 | 3.0 | 0.00 | 0.00 | 0.00 | 75 | 1023.5 |
| 20260502234129 | 43 | 255 | 2.0 | 3.0 | 0.00 | 0.00 | 0.00 | 77 | 1023.5 |
| 20260502233633 | 44 | 255 | 2.0 | 3.0 | 0.00 | 0.00 | 0.00 | 75 | 1023.6 |
| 20260502233137 | 44 | 255 | 2.0 | 3.0 | 0.00 | 0.00 | 0.00 | 77 | 1023.7 |
| 20260502232642 | 44 | 255 | 2.0 | 4.0 | 0.00 | 0.00 | 0.00 | 76 | 1023.7 |
| 20260502232125 | 44 | 255 | 3.0 | 5.0 | 0.00 | 0.00 | 0.00 | 76 | 1023.8 |
| 20260502231624 | 44 | 258 | 4.0 | 6.0 | 0.00 | 0.00 | 0.00 | 77 | 1023.8 |
| 20260502231127 | 44 | 254 | 1.0 | 3.0 | 0.00 | 0.00 | 0.00 | 78 | 1023.9 |
| 20260502230637 | 44 | 254 | 1.0 | 4.0 | 0.00 | 0.00 | 0.00 | 76 | 1023.9 |
| 20260502230142 | 44 | 254 | 3.0 | 4.0 | 0.00 | 0.00 | 0.00 | 78 | 1023.9 |
| 20260502225627 | 44 | 130 | 2.0 | 2.0 | 0.00 | 0.00 | 0.00 | 77 | 1023.9 |
| 20260502225130 | 44 | 101 | 1.0 | 2.0 | 0.00 | 0.00 | 0.00 | 77 | 1023.9 |
| 20260502224634 | 44 | 101 | 0.0 | 1.0 | 0.00 | 0.00 | 0.00 | 76 | 1023.9 |
| 20260502224138 | 44 | 101 | 0.0 | 2.0 | 0.00 | 0.00 | 0.00 | 77 | 1023.9 |
| 20260502223623 | 44 | 101 | 1.0 | 2.0 | 0.00 | 0.00 | 0.00 | 76 | 1023.9 |
| 20260502223128 | 44 | 101 | 1.0 | 1.0 | 0.00 | 0.00 | 0.00 | 76 | 1024.0 |
| 20260502222632 | 44 | 101 | 0.0 | 1.0 | 0.00 | 0.00 | 0.00 | 76 | 1024.0 |
| 20260502222137 | 44 | 101 | 0.0 | 2.0 | 0.00 | 0.00 | 0.00 | 75 | 1024.0 |
| 20260502221626 | 43 | 101 | 1.0 | 2.0 | 0.00 | 0.00 | 0.00 | 75 | 1024.0 |
| 20260502221130 | 44 | 101 | 0.0 | 2.0 | 0.00 | 0.00 | 0.00 | 75 | 1024.0 |
| 20260502220634 | 44 | 101 | 1.0 | 2.0 | 0.00 | 0.00 | 0.00 | 73 | 1024.1 |
| 20260502220139 | 44 | 101 | 1.0 | 3.0 | 0.00 | 0.00 | 0.00 | 73 | 1024.1 |
| 20260502215623 | 44 | 101 | 0.0 | 2.0 | 0.00 | 0.00 | 0.00 | 71 | 1024.1 |
| 20260502215129 | 44 | 101 | 1.0 | 2.0 | 0.00 | 0.00 | 0.00 | 71 | 1024.0 |
| 20260502214633 | 45 | 101 | 1.0 | 3.0 | 0.00 | 0.00 | 0.00 | 68 | 1024.1 |
| 20260502214137 | 45 | 101 | 2.0 | 3.0 | 0.00 | 0.00 | 0.00 | 68 | 1024.1 |
| 20260502213641 | 45 | 101 | 1.0 | 4.0 | 0.00 | 0.00 | 0.00 | 62 | 1024.1 |
| 20260502213125 | 45 | 75 | 2.0 | 4.0 | 0.00 | 0.00 | 0.00 | 55 | 1024.0 |
| 20260502212630 | 45 | 80 | 3.0 | 4.0 | 0.00 | 0.00 | 0.00 | 60 | 1024.0 |
| 20260502212139 | 45 | 88 | 3.0 | 4.0 | 0.00 | 0.00 | 0.00 | 64 | 1024.0 |
| 20260502211623 | 45 | 92 | 3.0 | 4.0 | 0.00 | 0.00 | 0.00 | 63 | 1024.0 |
| 20260502211128 | 45 | 69 | 2.0 | 3.0 | 0.00 | 0.00 | 0.00 | 59 | 1024.1 |
| 20260502210632 | 45 | 76 | 2.0 | 3.0 | 0.00 | 0.00 | 0.00 | 61 | 1024.1 |
| 20260502210136 | 45 | 71 | 2.0 | 3.0 | 0.00 | 0.00 | 0.00 | 59 | 1024.2 |
| 20260502205636 | 44 | 96 | 2.0 | 3.0 | 0.00 | 0.00 | 0.00 | 60 | 1024.3 |
| 20260502205136 | 45 | 94 | 1.0 | 2.0 | 0.00 | 0.00 | 0.00 | 63 | 1024.3 |
| 20260502204632 | 45 | 94 | 1.0 | 2.0 | 0.00 | 0.00 | 0.00 | 64 | 1024.3 |
| 20260502204134 | 45 | 94 | 1.0 | 2.0 | 0.00 | 0.00 | 0.00 | 63 | 1024.3 |
| 20260502203642 | 46 | 94 | 0.0 | 4.0 | 0.00 | 0.00 | 0.00 | 62 | 1024.4 |
| 20260502203133 | 46 | 94 | 2.0 | 4.0 | 0.00 | 0.00 | 0.00 | 61 | 1024.4 |
| 20260502202636 | 46 | 91 | 2.0 | 5.0 | 0.00 | 0.00 | 0.00 | 62 | 1024.4 |
| 20260502202140 | 46 | 81 | 3.0 | 5.0 | 0.00 | 0.00 | 0.00 | 62 | 1024.3 |
| 20260502201628 | 46 | 62 | 3.0 | 6.0 | 0.00 | 0.00 | 0.00 | 62 | 1024.4 |
| 20260502201129 | 46 | 69 | 2.0 | 4.0 | 0.00 | 0.00 | 0.00 | 65 | 1024.4 |
| 20260502200629 | 46 | 59 | 2.0 | 5.0 | 0.00 | 0.00 | 0.00 | 61 | 1024.4 |
| 20260502200133 | 46 | 71 | 4.0 | 6.0 | 0.00 | 0.00 | 0.00 | 59 | 1024.4 |
| 20260502195638 | 46 | 76 | 2.0 | 6.0 | 0.00 | 0.00 | 0.00 | 61 | 1024.4 |
| 20260502195122 | 46 | 69 | 3.0 | 6.0 | 0.00 | 0.00 | 0.00 | 65 | 1024.4 |
| 20260502194626 | 45 | 70 | 2.0 | 4.0 | 0.00 | 0.00 | 0.00 | 67 | 1024.4 |
| 20260502194128 | 45 | 57 | 1.0 | 4.0 | 0.00 | 0.00 | 0.00 | 70 | 1024.4 |
| 20260502193632 | 45 | 44 | 2.0 | 3.0 | 0.00 | 0.00 | 0.00 | 69 | 1024.4 |
| 20260502193133 | 45 | 65 | 2.0 | 3.0 | 0.00 | 0.00 | 0.00 | 72 | 1024.4 |
| 20260502192637 | 45 | 97 | 0.0 | 1.0 | 0.00 | 0.00 | 0.00 | 74 | 1024.5 |
| 20260502192124 | 45 | 97 | 0.0 | 2.0 | 0.00 | 0.00 | 0.00 | 74 | 1024.5 |
| 20260502191628 | 45 | 97 | 1.0 | 2.0 | 0.00 | 0.00 | 0.00 | 73 | 1024.5 |
| 20260502191132 | 46 | 97 | 1.0 | 2.0 | 0.00 | 0.00 | 0.00 | 73 | 1024.4 |
| 20260502190637 | 46 | 61 | 0.0 | 3.0 | 0.00 | 0.00 | 0.00 | 73 | 1024.4 |
| 20260502190123 | 46 | 61 | 1.0 | 4.0 | 0.00 | 0.00 | 0.00 | 73 | 1024.4 |
| 20260502185627 | 45 | 65 | 2.0 | 4.0 | 0.00 | 0.00 | 0.00 | 73 | 1024.4 |
| 20260502185130 | 46 | 59 | 0.0 | 2.0 | 0.00 | 0.00 | 0.00 | 73 | 1024.3 |
| 20260502184633 | 46 | 59 | 1.0 | 2.0 | 0.00 | 0.00 | 0.00 | 73 | 1024.3 |
| 20260502184137 | 46 | 59 | 0.0 | 2.0 | 0.00 | 0.00 | 0.00 | 72 | 1024.2 |
| 20260502183640 | 46 | 59 | 1.0 | 2.0 | 0.00 | 0.00 | 0.00 | 72 | 1024.2 |
| 20260502183136 | 47 | 5 | 1.0 | 2.0 | 0.00 | 0.00 | 0.00 | 71 | 1024.2 |
| 20260502182635 | 47 | 5 | 1.0 | 2.0 | 0.00 | 0.00 | 0.00 | 71 | 1024.1 |
| 20260502182124 | 47 | 5 | 1.0 | 2.0 | 0.00 | 0.00 | 0.00 | 72 | 1024.1 |
| 20260502181629 | 47 | 5 | 0.0 | 3.0 | 0.00 | 0.00 | 0.00 | 72 | 1024.1 |
| 20260502181133 | 47 | 5 | 1.0 | 4.0 | 0.00 | 0.00 | 0.00 | 73 | 1024.0 |
| 20260502180638 | 46 | 355 | 3.0 | 4.0 | 0.00 | 0.00 | 0.00 | 73 | 1024.0 |
| 20260502180122 | 47 | 325 | 4.0 | 4.0 | 0.00 | 0.00 | 0.00 | 73 | 1024.0 |
| 20260502170125 | 50 | 160 | 2.0 | 4.0 | 0.00 | 0.00 | 0.00 | 66 | 1024.1 |
| 20260502164122 | 51 | 180 | 0.0 | 3.0 | 0.00 | 0.00 | 0.00 | 66 | 1024.3 |
| 20260502163630 | 51 | 180 | 2.0 | 5.0 | 0.00 | 0.00 | 0.00 | 66 | 1024.3 |
| 20260502163135 | 51 | 256 | 2.0 | 5.0 | 0.00 | 0.00 | 0.00 | 67 | 1024.3 |
| 20260502162638 | 51 | 206 | 2.0 | 4.0 | 0.00 | 0.00 | 0.00 | 67 | 1024.4 |
| 20260502162123 | 51 | 198 | 1.0 | 6.0 | 0.00 | 0.00 | 0.00 | 67 | 1024.4 |
| 20260502161628 | 50 | 243 | 2.0 | 7.0 | 0.00 | 0.00 | 0.00 | 68 | 1024.5 |
| 20260502161133 | 51 | 201 | 2.0 | 6.0 | 0.00 | 0.00 | 0.00 | 68 | 1024.6 |
| 20260502160638 | 51 | 257 | 3.0 | 5.0 | 0.00 | 0.00 | 0.00 | 68 | 1024.6 |
| 20260502160122 | 50 | 233 | 0.0 | 7.0 | 0.00 | 0.00 | 0.00 | 69 | 1024.6 |
| 20260502152138 | 51 | 196 | 3.0 | 8.0 | 0.00 | 0.00 | 0.00 | 68 | 1024.8 |
| 20260502151622 | 51 | 189 | 5.0 | 8.0 | 0.00 | 0.00 | 0.00 | 69 | 1024.8 |
| 20260502151126 | 50 | 130 | 2.0 | 11.0 | 0.00 | 0.00 | 0.00 | 69 | 1024.8 |
| 20260502150630 | 51 | 166 | 5.0 | 11.0 | 0.00 | 0.00 | 0.00 | 69 | 1024.9 |
| 20260502150135 | 51 | 209 | 4.0 | 10.0 | 0.00 | 0.00 | 0.00 | 68 | 1024.9 |
| 20260502130636 | 50 | 113 | 5.0 | 10.0 | 0.00 | 0.00 | 0.00 | 71 | 1025.7 |
| 20260502130124 | 49 | 124 | 4.0 | 10.0 | 0.00 | 0.00 | 0.00 | 74 | 1025.7 |
| 20260502123624 | 49 | 175 | 5.0 | 10.0 | 0.00 | 0.00 | 0.00 | 74 | 1025.9 |
| 20260502123129 | 49 | 180 | 5.0 | 10.0 | 0.00 | 0.00 | 0.00 | 75 | 1025.8 |
| 20260502122634 | 48 | 167 | 4.0 | 13.0 | 0.00 | 0.00 | 0.00 | 71 | 1025.8 |
| 20260502122138 | 50 | 195 | 7.0 | 13.0 | 0.00 | 0.00 | 0.00 | 72 | 1025.9 |
| 20260502121623 | 50 | 217 | 7.0 | 10.0 | 0.00 | 0.00 | 0.00 | 71 | 1025.9 |
| 20260502121127 | 50 | 217 | 7.0 | 10.0 | 0.00 | 0.00 | 0.00 | 71 | 1025.9 |
| 20260502120630 | 50 | 188 | 5.0 | 12.0 | 0.00 | 0.00 | 0.00 | 69 | 1025.9 |
| 20260502120135 | 50 | 163 | 6.0 | 12.0 | 0.00 | 0.00 | 0.00 | 72 | 1025.9 |
| 20260502115637 | 49 | 144 | 5.0 | 10.0 | 0.00 | 0.00 | 0.00 | 71 | 1026.0 |
| 20260502115138 | 48 | 184 | 6.0 | 11.0 | 0.00 | 0.00 | 0.00 | 75 | 1026.1 |
| 20260502114633 | 48 | 230 | 6.0 | 14.0 | 0.00 | 0.00 | 0.00 | 74 | 1026.0 |
| 20260502114137 | 49 | 176 | 6.0 | 14.0 | 0.00 | 0.00 | 0.00 | 75 | 1026.2 |
| 20260502113641 | 47 | 186 | 6.0 | 14.0 | 0.00 | 0.00 | 0.00 | 75 | 1026.3 |
| 20260502113126 | 48 | 205 | 7.0 | 15.0 | 0.00 | 0.00 | 0.00 | 73 | 1026.2 |
| 20260502112629 | 48 | 229 | 10.0 | 15.0 | 0.00 | 0.00 | 0.00 | 75 | 1026.2 |
| 20260502112131 | 48 | 162 | 4.0 | 13.0 | 0.00 | 0.00 | 0.00 | 73 | 1026.2 |
| 20260502111635 | 48 | 223 | 6.0 | 11.0 | 0.00 | 0.00 | 0.00 | 77 | 1026.3 |
| 20260502111122 | 48 | 252 | 8.0 | 11.0 | 0.00 | 0.00 | 0.00 | 72 | 1026.4 |
| 20260502110626 | 47 | 207 | 7.0 | 11.0 | 0.00 | 0.00 | 0.00 | 73 | 1026.4 |
| 20260502110138 | 48 | 168 | 6.0 | 11.0 | 0.00 | 0.00 | 0.00 | 73 | 1026.5 |
| 20260502105643 | 49 | 205 | 7.0 | 12.0 | 0.00 | 0.00 | 0.00 | 70 | 1026.6 |
| 20260502105130 | 48 | 187 | 5.0 | 12.0 | 0.00 | 0.00 | 0.00 | 76 | 1026.6 |
| 20260502104624 | 48 | 205 | 7.0 | 13.0 | 0.00 | 0.00 | 0.00 | 72 | 1026.6 |
| 20260502104131 | 49 | 182 | 8.0 | 15.0 | 0.00 | 0.00 | 0.00 | 70 | 1026.7 |
| 20260502103635 | 48 | 207 | 5.0 | 15.0 | 0.00 | 0.00 | 0.00 | 73 | 1026.6 |
| 20260502103140 | 48 | 134 | 6.0 | 10.0 | 0.00 | 0.00 | 0.00 | 73 | 1026.6 |
| 20260502102626 | 48 | 28 | 6.0 | 12.0 | 0.00 | 0.00 | 0.00 | 70 | 1026.6 |
| 20260502102129 | 48 | 190 | 7.0 | 12.0 | 0.00 | 0.00 | 0.00 | 71 | 1026.7 |
| 20260502101633 | 47 | 175 | 6.0 | 13.0 | 0.00 | 0.00 | 0.00 | 72 | 1026.6 |
| 20260502101137 | 47 | 165 | 5.0 | 13.0 | 0.00 | 0.00 | 0.00 | 73 | 1026.7 |
| 20260502100641 | 47 | 186 | 4.0 | 15.0 | 0.00 | 0.00 | 0.00 | 73 | 1026.6 |
| 20260502100141 | 47 | 133 | 5.0 | 15.0 | 0.00 | 0.00 | 0.00 | 75 | 1026.6 |
| 20260502091124 | 47 | 148 | 8.0 | 13.0 | 0.00 | 0.00 | 0.00 | 72 | 1026.7 |
| 20260502090629 | 47 | 209 | 4.0 | 12.0 | 0.00 | 0.00 | 0.00 | 71 | 1026.8 |
| 20260502090139 | 47 | 166 | 5.0 | 12.0 | 0.00 | 0.00 | 0.00 | 71 | 1026.7 |
| 20260502071124 | 44 | 131 | 3.0 | 5.0 | 0.00 | 0.00 | 0.00 | 73 | 1026.7 |
| 20260502070628 | 45 | 184 | 3.0 | 7.0 | 0.00 | 0.00 | 0.00 | 73 | 1026.7 |
| 20260502070133 | 44 | 127 | 1.0 | 4.0 | 0.00 | 0.00 | 0.00 | 72 | 1026.6 |
| 20260502065639 | 44 | 202 | 2.0 | 5.0 | 0.00 | 0.00 | 0.00 | 73 | 1026.6 |
| 20260502065125 | 44 | 156 | 2.0 | 4.0 | 0.00 | 0.00 | 0.00 | 74 | 1026.6 |
| 20260502064630 | 44 | 116 | 1.0 | 4.0 | 0.00 | 0.00 | 0.00 | 73 | 1026.6 |
| 20260502064135 | 44 | 312 | 2.0 | 5.0 | 0.00 | 0.00 | 0.00 | 74 | 1026.6 |
| 20260502063640 | 43 | 220 | 2.0 | 5.0 | 0.00 | 0.00 | 0.00 | 75 | 1026.6 |
| 20260502063124 | 43 | 317 | 1.0 | 3.0 | 0.00 | 0.00 | 0.00 | 75 | 1026.6 |
| 20260502062629 | 43 | 239 | 1.0 | 3.0 | 0.00 | 0.00 | 0.00 | 75 | 1026.5 |
| 20260502062137 | 43 | 185 | 1.0 | 3.0 | 0.00 | 0.00 | 0.00 | 74 | 1026.5 |
| 20260502061623 | 43 | 212 | 0.0 | 2.0 | 0.00 | 0.00 | 0.00 | 73 | 1026.5 |
| 20260502061126 | 42 | 212 | 1.0 | 2.0 | 0.00 | 0.00 | 0.00 | 73 | 1026.5 |
| 20260502060631 | 42 | 212 | 1.0 | 2.0 | 0.00 | 0.00 | 0.00 | 75 | 1026.5 |
| 20260502060135 | 42 | 212 | 1.0 | 2.0 | 0.00 | 0.00 | 0.00 | 74 | 1026.4 |
| 20260502055638 | 42 | 240 | 1.0 | 2.0 | 0.00 | 0.00 | 0.00 | 73 | 1026.5 |
| 20260502055122 | 42 | 240 | 0.0 | 2.0 | 0.00 | 0.00 | 0.00 | 72 | 1026.5 |
| 20260502054132 | 42 | 240 | 1.0 | 2.0 | 0.00 | 0.00 | 0.00 | 73 | 1026.4 |
| 20260502053635 | 42 | 240 | 0.0 | 2.0 | 0.00 | 0.00 | 0.00 | 72 | 1026.4 |